| time (UTC) | temp C | wind direction | speed KPH | gust KPH | rain 1hr cm | rain 24hr cm | rain mn cm | humidity % | barometer mb |
| 20260507231834 | 13 | 89 | 6.4 | 8.0 | 0.00 | 0.18 | 0.00 | 81 | 1014.5 |
| 20260507230833 | 13 | 111 | 3.2 | 6.4 | 0.00 | 0.18 | 0.00 | 81 | 1014.5 |
| 20260507225833 | 13 | 157 | 1.6 | 4.8 | 0.00 | 0.18 | 0.00 | 82 | 1014.6 |
| 20260507224836 | 13 | 165 | 1.6 | 6.4 | 0.00 | 0.18 | 0.00 | 82 | 1014.6 |
| 20260507223835 | 13 | 151 | 1.6 | 4.8 | 0.00 | 0.18 | 0.00 | 82 | 1014.5 |
| 20260507223647 | 13 | 145 | 1.6 | 3.2 | 0.00 | 0.18 | 0.00 | 82 | 1014.4 |
| 20260507221833 | 13 | 159 | 0.0 | 3.2 | 0.00 | 0.18 | 0.00 | 82 | 1014.4 |
| 20260507221442 | 13 | 221 | 1.6 | 4.8 | 0.00 | 0.18 | 0.00 | 82 | 1014.4 |
| 20260507215835 | 13 | 162 | 1.6 | 3.2 | 0.00 | 0.18 | 0.18 | 82 | 1014.5 |
| 20260507214833 | 14 | 159 | 0.0 | 4.8 | 0.00 | 0.18 | 0.18 | 82 | 1014.4 |
| 20260507213834 | 14 | 178 | 1.6 | 3.2 | 0.00 | 0.18 | 0.18 | 82 | 1014.5 |
| 20260507213624 | 14 | 233 | 0.0 | 4.8 | 0.00 | 0.18 | 0.18 | 81 | 1014.5 |
| 20260507211833 | 14 | 176 | 0.0 | 6.4 | 0.00 | 0.18 | 0.18 | 81 | 1014.6 |
| 20260507210943 | 15 | 238 | 0.0 | 4.8 | 0.00 | 0.18 | 0.18 | 80 | 1014.7 |
| 20260507210848 | 14 | 137 | 1.6 | 4.8 | 0.00 | 0.18 | 0.18 | 80 | 1014.5 |
| 20260507204832 | 15 | 142 | 0.0 | 8.0 | 0.00 | 0.18 | 0.18 | 79 | 1014.6 |
| 20260507203833 | 15 | 120 | 0.0 | 4.8 | 0.00 | 0.18 | 0.18 | 79 | 1014.7 |
| 20260507202836 | 15 | 7 | 0.0 | 4.8 | 0.00 | 0.18 | 0.18 | 79 | 1014.7 |
| 20260507201838 | 15 | 185 | 0.0 | 6.4 | 0.00 | 0.18 | 0.18 | 78 | 1014.7 |
| 20260507200832 | 15 | 159 | 0.0 | 3.2 | 0.00 | 0.18 | 0.18 | 77 | 1014.7 |
| 20260507200157 | 16 | 100 | 3.2 | 8.0 | 0.00 | 0.18 | 0.18 | 75 | 1014.5 |
| 20260507195903 | 16 | 154 | 1.6 | 8.0 | 0.00 | 0.18 | 0.18 | 76 | 1014.7 |
| 20260507194833 | 16 | 123 | 4.8 | 8.0 | 0.00 | 0.18 | 0.18 | 76 | 1014.5 |
| 20260507193211 | 16 | 162 | 6.4 | 11.3 | 0.00 | 0.18 | 0.18 | 73 | 1014.3 |
| 20260507192909 | 16 | 72 | 4.8 | 11.3 | 0.00 | 0.18 | 0.18 | 74 | 1014.5 |
| 20260507191938 | 16 | 76 | 6.4 | 11.3 | 0.00 | 0.18 | 0.18 | 72 | 1014.2 |
| 20260507191918 | 17 | 113 | 8.0 | 11.3 | 0.00 | 0.18 | 0.18 | 70 | 1014.2 |
| 20260507191842 | 16 | 148 | 3.2 | 11.3 | 0.00 | 0.18 | 0.18 | 74 | 1014.5 |
| 20260507183834 | 17 | 89 | 8.0 | 14.5 | 0.00 | 0.18 | 0.18 | 70 | 1014.2 |
| 20260507182835 | 17 | 96 | 3.2 | 16.1 | 0.00 | 0.18 | 0.18 | 69 | 1014.1 |
| 20260507182205 | 17 | 86 | 8.0 | 16.1 | 0.00 | 0.18 | 0.18 | 69 | 1013.9 |
| 20260507181911 | 17 | 110 | 9.7 | 16.1 | 0.00 | 0.18 | 0.18 | 69 | 1014.0 |
| 20260507175833 | 18 | 159 | 6.4 | 19.3 | 0.00 | 0.18 | 0.18 | 69 | 1013.7 |
| 20260507174836 | 18 | 89 | 6.4 | 16.1 | 0.00 | 0.18 | 0.18 | 68 | 1013.6 |
| 20260507174735 | 18 | 117 | 8.0 | 14.5 | 0.00 | 0.18 | 0.18 | 68 | 1013.5 |
| 20260507172834 | 18 | 111 | 9.7 | 19.3 | 0.00 | 0.18 | 0.18 | 68 | 1013.5 |
| 20260507171850 | 18 | 80 | 11.3 | 24.1 | 0.00 | 0.18 | 0.18 | 67 | 1013.4 |
| 20260507170835 | 18 | 99 | 11.3 | 20.9 | 0.00 | 0.18 | 0.18 | 68 | 1013.2 |
| 20260507165835 | 18 | 102 | 8.0 | 19.3 | 0.00 | 0.18 | 0.18 | 68 | 1013.1 |
| 20260507164832 | 18 | 90 | 9.7 | 20.9 | 0.00 | 0.18 | 0.18 | 68 | 1013.1 |
| 20260507163833 | 19 | 114 | 9.7 | 20.9 | 0.00 | 0.18 | 0.18 | 68 | 1013.0 |
| 20260507162834 | 19 | 66 | 9.7 | 20.9 | 0.00 | 0.18 | 0.18 | 67 | 1013.1 |
| 20260507162654 | 19 | 149 | 9.7 | 22.5 | 0.00 | 0.18 | 0.18 | 68 | 1013.3 |
| 20260507161642 | 19 | 127 | 12.9 | 22.5 | 0.00 | 0.18 | 0.18 | 67 | 1013.3 |
| 20260507155834 | 19 | 94 | 11.3 | 20.9 | 0.00 | 0.18 | 0.18 | 68 | 1013.3 |
| 20260507154833 | 19 | 104 | 14.5 | 25.7 | 0.00 | 0.18 | 0.18 | 67 | 1013.2 |
| 20260507154328 | 20 | 99 | 16.1 | 25.7 | 0.00 | 0.18 | 0.18 | 69 | 1013.1 |
| 20260507154307 | 20 | 100 | 12.9 | 24.1 | 0.00 | 0.18 | 0.18 | 69 | 1013.3 |
| 20260507153927 | 20 | 86 | 11.3 | 25.7 | 0.00 | 0.18 | 0.18 | 68 | 1013.1 |
| 20260507150833 | 20 | 71 | 17.7 | 27.4 | 0.00 | 0.18 | 0.18 | 69 | 1013.0 |
| 20260507145832 | 20 | 49 | 12.9 | 27.4 | 0.00 | 0.18 | 0.18 | 71 | 1013.2 |
| 20260507144833 | 20 | 68 | 19.3 | 27.4 | 0.00 | 0.18 | 0.18 | 71 | 1013.2 |
| 20260507144618 | 20 | 78 | 17.7 | 29.0 | 0.00 | 0.18 | 0.18 | 71 | 1013.2 |
| 20260507143758 | 21 | 100 | 17.7 | 27.4 | 0.00 | 0.18 | 0.18 | 67 | 1013.2 |
| 20260507141834 | 22 | 62 | 11.3 | 27.4 | 0.00 | 0.18 | 0.18 | 60 | 1013.2 |
| 20260507140832 | 23 | 76 | 16.1 | 24.1 | 0.00 | 0.18 | 0.18 | 53 | 1013.1 |
| 20260507135832 | 24 | 310 | 4.8 | 9.7 | 0.00 | 0.18 | 0.18 | 47 | 1013.2 |
| 20260507135356 | 23 | 319 | 3.2 | 6.4 | 0.00 | 0.18 | 0.18 | 46 | 1013.2 |
| 20260507135005 | 23 | 1 | 3.2 | 9.7 | 0.00 | 0.18 | 0.18 | 49 | 1013.2 |
| 20260507132830 | 24 | 286 | 1.6 | 8.0 | 0.00 | 0.18 | 0.18 | 46 | 1013.2 |
| 20260507131831 | 24 | 243 | 1.6 | 6.4 | 0.00 | 0.18 | 0.18 | 46 | 1013.4 |
| 20260507130829 | 25 | 250 | 1.6 | 8.0 | 0.00 | 0.18 | 0.18 | 46 | 1013.4 |
| 20260507125831 | 24 | 238 | 1.6 | 8.0 | 0.00 | 0.18 | 0.18 | 49 | 1013.4 |
| 20260507124829 | 24 | 213 | 1.6 | 6.4 | 0.00 | 0.18 | 0.18 | 48 | 1013.3 |
| 20260507123833 | 25 | 252 | 3.2 | 6.4 | 0.00 | 0.18 | 0.18 | 48 | 1013.5 |
| 20260507122829 | 24 | 0 | 1.6 | 14.5 | 0.00 | 0.18 | 0.18 | 47 | 1013.3 |
| 20260507121824 | 24 | 296 | 3.2 | 9.7 | 0.00 | 0.18 | 0.18 | 49 | 1013.5 |
| 20260507120827 | 24 | 247 | 1.6 | 9.7 | 0.00 | 0.18 | 0.18 | 51 | 1013.5 |
| 20260507120718 | 24 | 168 | 6.4 | 9.7 | 0.00 | 0.18 | 0.18 | 49 | 1013.6 |
| 20260507114823 | 24 | 250 | 3.2 | 9.7 | 0.00 | 0.18 | 0.18 | 50 | 1013.5 |
| 20260507113823 | 24 | 227 | 3.2 | 8.0 | 0.00 | 0.18 | 0.18 | 50 | 1013.7 |
| 20260507112821 | 23 | 220 | 3.2 | 6.4 | 0.00 | 0.18 | 0.18 | 49 | 1013.7 |
| 20260507112629 | 23 | 195 | 1.6 | 11.3 | 0.00 | 0.18 | 0.18 | 54 | 1013.8 |
| 20260507110815 | 22 | 186 | 3.2 | 8.0 | 0.00 | 0.18 | 0.18 | 56 | 1013.8 |
| 20260507110639 | 22 | 279 | 6.4 | 8.0 | 0.00 | 0.18 | 0.18 | 54 | 1013.9 |
| 20260507104814 | 22 | 265 | 3.2 | 11.3 | 0.00 | 0.18 | 0.18 | 60 | 1013.9 |
| 20260507103809 | 21 | 219 | 3.2 | 8.0 | 0.00 | 0.18 | 0.18 | 60 | 1014.1 |
| 20260507103456 | 21 | 278 | 4.8 | 14.5 | 0.00 | 0.18 | 0.18 | 62 | 1014.2 |
| 20260507101810 | 21 | 283 | 3.2 | 11.3 | 0.00 | 0.18 | 0.18 | 61 | 1014.2 |
| 20260507101625 | 20 | 264 | 3.2 | 9.7 | 0.00 | 0.18 | 0.18 | 64 | 1014.3 |
| 20260507095807 | 20 | 250 | 3.2 | 6.4 | 0.00 | 0.18 | 0.18 | 65 | 1014.3 |
| 20260507095454 | 20 | 281 | 4.8 | 8.0 | 0.00 | 0.18 | 0.18 | 61 | 1014.3 |
| 20260507093807 | 20 | 4 | 4.8 | 9.7 | 0.00 | 0.18 | 0.18 | 62 | 1014.3 |
| 20260507092809 | 20 | 343 | 4.8 | 9.7 | 0.00 | 0.18 | 0.18 | 67 | 1014.4 |
| 20260507092645 | 19 | 324 | 3.2 | 8.0 | 0.00 | 0.18 | 0.18 | 67 | 1014.3 |
| 20260507090807 | 18 | 279 | 4.8 | 11.3 | 0.00 | 0.18 | 0.18 | 66 | 1014.3 |
| 20260507085806 | 18 | 212 | 3.2 | 9.7 | 0.00 | 0.18 | 0.18 | 66 | 1014.3 |
| 20260507084809 | 18 | 247 | 3.2 | 8.0 | 0.00 | 0.18 | 0.18 | 68 | 1014.4 |
| 20260507083803 | 18 | 241 | 3.2 | 6.4 | 0.00 | 0.18 | 0.18 | 69 | 1014.2 |
| 20260507082806 | 18 | 279 | 3.2 | 8.0 | 0.00 | 0.18 | 0.18 | 68 | 1014.1 |
| 20260507081804 | 19 | 274 | 4.8 | 8.0 | 0.00 | 0.18 | 0.18 | 73 | 1014.0 |
| 20260507080806 | 18 | 286 | 1.6 | 8.0 | 0.00 | 0.18 | 0.18 | 73 | 1013.9 |
| 20260507080325 | 17 | 281 | 1.6 | 9.7 | 0.00 | 0.18 | 0.18 | 81 | 1013.8 |
| 20260507075924 | 18 | 268 | 3.2 | 6.4 | 0.00 | 0.18 | 0.18 | 77 | 1013.9 |
| 20260507073805 | 17 | 295 | 1.6 | 4.8 | 0.00 | 0.18 | 0.18 | 85 | 1013.9 |
| 20260507072807 | 16 | 155 | 0.0 | 6.4 | 0.00 | 0.18 | 0.18 | 85 | 1013.8 |
| 20260507071804 | 16 | 141 | 1.6 | 4.8 | 0.00 | 0.18 | 0.18 | 86 | 1014.0 |
| 20260507070805 | 16 | 151 | 3.2 | 6.4 | 0.00 | 0.18 | 0.18 | 88 | 1013.9 |
| 20260507070305 | 15 | 71 | 0.0 | 3.2 | 0.00 | 0.18 | 0.18 | 90 | 1013.9 |
| 20260507065919 | 15 | 134 | 1.6 | 4.8 | 0.00 | 0.18 | 0.18 | 88 | 1013.9 |
| 20260507063806 | 15 | 71 | 1.6 | 4.8 | 0.00 | 0.18 | 0.18 | 91 | 1013.8 |
| 20260507063428 | 15 | 178 | 0.0 | 4.8 | 0.00 | 0.18 | 0.18 | 91 | 1013.8 |
| 20260507061804 | 15 | 96 | 1.6 | 6.4 | 0.00 | 0.20 | 0.18 | 92 | 1013.8 |
| 20260507060802 | 15 | 73 | 3.2 | 4.8 | 0.00 | 0.23 | 0.18 | 92 | 1013.9 |
| 20260507055804 | 15 | 343 | 0.0 | 4.8 | 0.00 | 0.23 | 0.18 | 92 | 1013.7 |
| 20260507054803 | 14 | 87 | 0.0 | 4.8 | 0.00 | 0.23 | 0.18 | 92 | 1013.6 |
| 20260507053802 | 14 | 87 | 1.6 | 4.8 | 0.00 | 0.23 | 0.18 | 92 | 1013.6 |
| 20260507052803 | 14 | 87 | 0.0 | 4.8 | 0.00 | 0.23 | 0.18 | 91 | 1013.6 |
| 20260507051810 | 13 | 87 | 3.2 | 4.8 | 0.00 | 0.23 | 0.18 | 92 | 1013.5 |
| 20260507050806 | 13 | 87 | 3.2 | 4.8 | 0.00 | 0.23 | 0.18 | 92 | 1013.4 |
| 20260507045806 | 13 | 87 | 1.6 | 3.2 | 0.03 | 0.20 | 0.18 | 92 | 1013.2 |
| 20260507045449 | 13 | 87 | 1.6 | 4.8 | 0.03 | 0.20 | 0.18 | 92 | 1013.0 |
| 20260507043804 | 13 | 87 | 3.2 | 4.8 | 0.03 | 0.20 | 0.18 | 92 | 1012.9 |
| 20260507043216 | 13 | 1 | 3.2 | 6.4 | 0.03 | 0.20 | 0.18 | 91 | 1012.7 |
| 20260507042917 | 13 | 357 | 1.6 | 6.4 | 0.03 | 0.20 | 0.18 | 92 | 1012.7 |
| 20260507040803 | 13 | 227 | 0.0 | 6.4 | 0.05 | 0.20 | 0.18 | 91 | 1012.7 |
| 20260507035806 | 13 | 231 | 1.6 | 6.4 | 0.05 | 0.18 | 0.15 | 91 | 1012.4 |
| 20260507034806 | 13 | 243 | 0.0 | 6.4 | 0.08 | 0.18 | 0.15 | 91 | 1012.4 |
| 20260507033802 | 13 | 278 | 3.2 | 4.8 | 0.10 | 0.18 | 0.15 | 90 | 1012.5 |
| 20260507032805 | 13 | 278 | 0.0 | 3.2 | 0.15 | 0.18 | 0.15 | 90 | 1012.5 |
| 20260507031806 | 13 | 278 | 1.6 | 6.4 | 0.15 | 0.18 | 0.15 | 90 | 1012.5 |
| 20260507030802 | 14 | 288 | 3.2 | 3.2 | 0.15 | 0.18 | 0.15 | 89 | 1012.5 |
| 20260507025801 | 14 | 247 | 1.6 | 4.8 | 0.13 | 0.05 | 0.13 | 88 | 1012.6 |
| 20260507024800 | 14 | 241 | 3.2 | 6.4 | 0.08 | 0.05 | 0.08 | 87 | 1012.5 |
| 20260507023806 | 15 | 220 | 3.2 | 6.4 | 0.05 | 0.05 | 0.05 | 86 | 1012.4 |
| 20260507022759 | 15 | 269 | 4.8 | 8.0 | 0.03 | 0.05 | 0.03 | 83 | 1012.4 |
| 20260507021756 | 15 | 302 | 6.4 | 14.5 | 0.03 | 0.05 | 0.00 | 81 | 1012.3 |
| 20260507020756 | 15 | 278 | 6.4 | 11.3 | 0.00 | 0.05 | 0.00 | 80 | 1012.1 |
| 20260507015755 | 16 | 279 | 6.4 | 9.7 | 0.00 | 0.05 | 0.00 | 79 | 1012.0 |
| 20260507014754 | 16 | 271 | 3.2 | 4.8 | 0.00 | 0.05 | 0.00 | 78 | 1011.9 |
| 20260507013753 | 16 | 261 | 3.2 | 4.8 | 0.00 | 0.05 | 0.00 | 77 | 1012.0 |
| 20260507012755 | 16 | 264 | 3.2 | 6.4 | 0.00 | 0.05 | 0.00 | 77 | 1011.9 |
| 20260507011752 | 16 | 247 | 3.2 | 6.4 | 0.00 | 0.05 | 0.00 | 77 | 1011.9 |
| 20260507010958 | 16 | 283 | 3.2 | 6.4 | 0.00 | 0.05 | 0.00 | 74 | 1011.9 |
| 20260507010942 | 16 | 290 | 8.0 | 14.5 | 0.00 | 0.05 | 0.00 | 75 | 1011.8 |
| 20260507010825 | 16 | 282 | 4.8 | 17.7 | 0.00 | 0.05 | 0.00 | 76 | 1011.9 |
| 20260507003751 | 16 | 295 | 3.2 | 4.8 | 0.00 | 0.05 | 0.00 | 73 | 1012.1 |
| 20260507002754 | 16 | 313 | 0.0 | 3.2 | 0.00 | 0.05 | 0.00 | 73 | 1012.2 |
| 20260507002436 | 16 | 313 | 1.6 | 6.4 | 0.00 | 0.05 | 0.00 | 74 | 1012.2 |
| 20260507000748 | 16 | 17 | 0.0 | 4.8 | 0.00 | 0.05 | 0.00 | 74 | 1012.2 |
| 20260506235747 | 16 | 0 | 3.2 | 8.0 | 0.00 | 0.05 | 0.00 | 75 | 1012.2 |
| 20260506234751 | 16 | 42 | 3.2 | 6.4 | 0.00 | 0.05 | 0.00 | 75 | 1012.3 |
| 20260506233751 | 16 | 35 | 4.8 | 6.4 | 0.00 | 0.05 | 0.00 | 75 | 1012.3 |